Location: Blue Mountain Vista Observatory
(40.6992°N, 75.9422°W)
Time: 01:09:50
(UTC-04:00)

Amateur Radio Satellites - All Passes

Search period start: 28 September 2016 00:39
Search period end: 29 September 2016 00:39
Location: Blue Mountain Vista Observatory, 40.6992°N, 75.9422°W

Satellite Date Start Highest point End Downlink Frequencies (MHz)
Time Altitude Azimuth
AUBIESAT-1 28 Sep 00:41:29 00:45:25 44° 255° (WSW) 00:49:06 437.475
RS-15 28 Sep 00:42:06 00:51:06 23° 351° (N) 01:00:14 29.354- 29.394
CUBEBUG 1 28 Sep 00:43:16 00:47:12 31° 263° (W) 00:51:09 437.445
JAS-2 28 Sep 00:48:16 00:56:07 65° 101° (E) 01:03:33 435.910
ISS 28 Sep 00:50:09 00:51:53 13° 9° (N) 00:53:37 145.825
QB50P2 28 Sep 00:50:34 00:54:48 78° 283° (WNW) 00:59:01 145.880/145.840
POLYITAN 1 28 Sep 00:52:47 00:57:00 78° 284° (WNW) 01:01:13 437.675
ANTELSAT 28 Sep 00:55:36 00:57:19 12° 297° (WNW) 00:59:02 437.575/2403.000
BEESAT 3 28 Sep 01:07:15 01:11:01 49° 118° (ESE) 01:14:49 437.485
TISAT 1 28 Sep 01:09:09 01:13:04 40° 72° (ENE) 01:17:00 437.305
M-CUBED/EXP-1 PRIME 28 Sep 01:20:45 01:22:57 14° 261° (W) 01:25:05 437.505
50 SAT 28 Sep 01:22:31 01:23:53 12° 269° (W) 01:25:16 437.505
SPROUT 28 Sep 01:24:51 01:28:23 25° 264° (W) 01:31:59 437.525
ITUPSAT 1 28 Sep 01:27:22 01:29:55 15° 62° (ENE) 01:32:28 437.325
DUCHIFAT 1 28 Sep 01:31:14 01:35:00 33° 289° (WNW) 01:38:45 145.980
QB50P1 28 Sep 01:33:27 01:37:03 28° 291° (WNW) 01:40:38 145.935-145.965
BUGSAT 1 28 Sep 01:33:33 01:37:34 77° 285° (WNW) 01:41:35 437.445
YUBILEINY 28 Sep 01:33:40 01:37:00 13° 74° (ENE) 01:40:21 435.215
SO-50 28 Sep 01:33:57 01:37:43 26° 247° (WSW) 01:41:23 436.795
AISAT 28 Sep 01:34:09 01:35:49 12° 269° (W) 01:37:30 437.250
Oscar 19 28 Sep 01:34:36 01:38:25 21° 93° (E) 01:42:13 437.125/150
UKube-1 28 Sep 01:39:14 01:42:28 20° 266° (W) 01:45:43 .
SWISSCUBE 28 Sep 01:39:17 01:42:50 21° 65° (ENE) 01:46:25 437.505
POPSAT HIP 1 28 Sep 01:47:20 01:50:29 21° 293° (WNW) 01:53:37 437.405
BEESAT 28 Sep 01:51:54 01:55:46 25° 66° (ENE) 01:59:39 436.000
BEESAT 2 28 Sep 02:02:30 02:06:27 81° 304° (NW) 02:10:26 435.950
NANOSAT C BR1 28 Sep 02:04:22 02:06:42 15° 296° (WNW) 02:09:03 145.865
Cosmos 2491 28 Sep 02:24:54 02:33:46 74° 81° (E) 02:42:34 435.465 / 435.565
ISS 28 Sep 02:26:04 02:29:07 34° 28° (NNE) 02:32:10 145.825
Gurwin Techsat 1B 28 Sep 02:31:30 02:36:20 35° 97° (E) 02:41:09 435.225
JAS-2 28 Sep 02:34:03 02:40:28 29° 299° (WNW) 02:46:44 435.910
TISAT 1 28 Sep 02:46:16 02:48:53 16° 267° (W) 02:51:31 437.305
BEESAT 3 28 Sep 02:46:21 02:48:56 17° 316° (NW) 02:51:34 437.485
RS-15 28 Sep 02:58:56 03:09:19 30° 27° (NNE) 03:19:39 29.354- 29.394
ITUPSAT 1 28 Sep 03:02:28 03:07:11 65° 258° (WSW) 03:11:57 437.325
Oscar 19 28 Sep 03:13:02 03:17:57 46° 290° (WNW) 03:22:50 437.125/150
SWISSCUBE 28 Sep 03:15:52 03:20:21 41° 261° (W) 03:24:52 437.505
MOZHAYETS 4 28 Sep 03:17:52 03:21:52 31° 69° (ENE) 03:25:53
YUBILEINY 28 Sep 03:23:24 03:32:08 73° 94° (E) 03:40:52 435.215
BEESAT 28 Sep 03:29:05 03:33:22 34° 263° (W) 03:37:43 436.000
KKS-1 28 Sep 03:42:45 03:46:50 36° 70° (ENE) 03:50:55 437.445
BEESAT 2 28 Sep 03:44:05 03:44:55 11° 321° (NW) 03:45:47 435.950
ISS 28 Sep 04:02:39 04:05:33 29° 225° (SW) 04:08:27 145.825
PCSat 28 Sep 04:02:43 04:07:19 29° 109° (ESE) 04:11:57 145.827
AO-7 28 Sep 04:04:08 04:11:42 38° 98° (E) 04:19:13 29.400- 29.500
ITAMSAT 1 28 Sep 04:05:57 04:11:11 73° 104° (ESE) 04:16:24 435.822/435.867
Gurwin Techsat 1B 28 Sep 04:11:36 04:16:10 30° 293° (WNW) 04:20:43 435.225
Cosmos 2504 28 Sep 04:14:53 04:22:09 59° 92° (E) 04:29:10 435.465 / 435.565
STARS 28 Sep 04:16:11 04:20:16 40° 71° (ENE) 04:24:22 437.465
Cosmos 2491 28 Sep 04:23:13 04:29:39 23° 280° (W) 04:36:04 435.465 / 435.565
AIST 2 28 Sep 04:25:16 04:29:21 72° 303° (WNW) 04:33:30 435.215
CUBESAT XI-V 28 Sep 04:37:46 04:41:47 29° 68° (ENE) 04:45:50 437.345
MOZHAYETS 4 28 Sep 04:55:14 04:59:00 25° 265° (W) 05:02:50
RS-15 28 Sep 05:11:55 05:24:23 75° 55° (NE) 05:36:31 29.354- 29.394
KKS-1 28 Sep 05:20:11 05:23:29 20° 266° (W) 05:26:48 437.445
AIST 1 28 Sep 05:20:36 05:24:48 46° 93° (E) 05:29:00
DANDE 28 Sep 05:21:06 05:25:25 15° 57° (ENE) 05:29:39 436.750
YUBILEINY 28 Sep 05:22:58 05:29:46 24° 294° (WNW) 05:36:36 435.215
CUSAT 1 28 Sep 05:30:52 05:37:36 31° 67° (ENE) 05:43:26 437.405
AO-85 28 Sep 05:34:26 05:38:05 28° 48° (NE) 05:41:31 145.980
PCSat 28 Sep 05:45:28 05:50:32 40° 306° (NW) 05:55:39 145.827
ITAMSAT 1 28 Sep 05:47:08 05:50:01 15° 300° (WNW) 05:52:54 435.822/435.867
NOAA 15 28 Sep 05:52:21 05:53:57 11° 89° (E) 05:55:32 137.62
STARS 28 Sep 05:53:45 05:56:46 18° 266° (W) 05:59:47 437.465
AO-7 28 Sep 05:56:44 06:04:35 49° 297° (WNW) 06:12:26 29.400- 29.500
AIST 2 28 Sep 06:08:01 06:08:36 10° 322° (NW) 06:09:11 435.215
Cubesat XI-IV 28 Sep 06:08:06 06:10:44 14° 90° (E) 06:13:20 437.490
CUTE-I 28 Sep 06:08:09 06:10:50 14° 90° (E) 06:13:31 437.470
Cosmos 2504 28 Sep 06:10:14 06:15:58 24° 291° (WNW) 06:21:36 435.465 / 435.565
CUBESAT XI-V 28 Sep 06:15:02 06:19:05 29° 265° (W) 06:23:11 437.345
GOMX 1 28 Sep 06:29:17 06:32:45 22° 93° (E) 06:36:04 467.674
HORYU 2 28 Sep 06:30:11 06:34:38 76° 285° (WNW) 06:39:05 437.375
BRITE-PL 28 Sep 06:40:09 06:45:00 78° 103° (ESE) 06:49:26 437.365/2234.400
NOAA 18 28 Sep 06:49:14 06:53:50 27° 96° (E) 06:58:24 137.9125
DOVE 4 28 Sep 06:50:26 06:52:49 15° 91° (E) 06:55:12 437.250
AIST 1 28 Sep 07:00:08 07:02:39 15° 290° (WNW) 07:05:12
DANDE 28 Sep 07:01:29 07:09:52 65° 77° (ENE) 07:17:37 436.750
CUSAT 1 28 Sep 07:12:34 07:20:00 52° 269° (W) 07:26:11 437.405
LilacSat-2 28 Sep 07:14:04 07:17:54 68° 101° (E) 07:21:43 437.200
AO-85 28 Sep 07:14:59 07:18:23 25° 247° (WSW) 07:21:37 145.980
O/OREOS (USA 219) 28 Sep 07:16:07 07:20:26 45° 107° (ESE) 07:24:49 437.305
STRAND 1 28 Sep 07:21:15 07:26:18 68° 74° (ENE) 07:31:23 437.568
RS-15 28 Sep 07:25:34 07:35:46 32° 257° (WSW) 07:45:47 29.354- 29.394
NOAA 15 28 Sep 07:29:02 07:34:21 84° 286° (WNW) 07:39:38 137.62
Cosmos 2499 28 Sep 07:31:27 07:32:49 11° 77° (ENE) 07:34:11 435.465 / 435.565
Cubesat XI-IV 28 Sep 07:45:58 07:51:19 74° 286° (WNW) 07:56:40 437.490
CUTE-I 28 Sep 07:46:03 07:51:24 72° 286° (WNW) 07:56:44 437.470
GONETS M04 28 Sep 07:48:08 07:54:54 25° 81° (E) 08:01:40
AO-7 28 Sep 07:53:28 07:55:21 11° 318° (NW) 07:57:14 29.400- 29.500
CINEMA 3 28 Sep 07:59:52 08:03:11 22° 95° (E) 08:06:33 145.822/145.860
GOMX 1 28 Sep 08:07:03 08:10:53 29° 291° (WNW) 08:14:32 467.674
CUTE 1.7 + AOD 2 28 Sep 08:12:29 08:15:57 23° 94° (E) 08:19:22 437.475
CANX-2 28 Sep 08:13:36 08:17:18 27° 95° (E) 08:20:59 2200.000
SEEDS 28 Sep 08:14:03 08:16:47 17° 92° (E) 08:19:30 437.485
BRITE-PL 28 Sep 08:21:08 08:22:39 11° 301° (WNW) 08:24:09 437.365/2234.400
DOVE 4 28 Sep 08:26:50 08:30:47 41° 288° (WNW) 08:34:40 437.250
NOAA 18 28 Sep 08:29:31 08:34:34 40° 292° (WNW) 08:39:38 137.9125
AAUSAT CUBESAT 2 28 Sep 08:36:04 08:38:33 15° 92° (E) 08:41:01 437.432
HO-68 28 Sep 08:38:17 08:45:12 49° 100° (E) 08:52:04 435.675
DANDE 28 Sep 08:45:11 08:52:00 29° 276° (W) 08:58:26 436.750
O/OREOS (USA 219) 28 Sep 08:56:46 09:00:04 19° 304° (NW) 09:03:24 437.305
STRAND 1 28 Sep 09:03:27 09:05:57 14° 270° (W) 09:08:28 437.568
CUBEBUG 2 28 Sep 09:05:07 09:08:59 32° 97° (E) 09:12:58 437.445
PRISM 28 Sep 09:07:38 09:11:48 85° 75° (ENE) 09:16:01 437.425
FUNcube-1 28 Sep 09:10:17 09:12:40 14° 92° (E) 09:15:05 145.935
NOAA 15 28 Sep 09:11:34 09:13:17 12° 303° (WNW) 09:14:59 137.62
Cosmos 2499 28 Sep 09:17:28 09:24:37 78° 95° (E) 09:31:41 435.465 / 435.565
COMPASS 1 28 Sep 09:19:19 09:23:30 62° 100° (E) 09:27:40 437.405
UWE-3 28 Sep 09:22:33 09:26:30 33° 97° (E) 09:30:31 435.000/436.395/437.385
BEESAT 3 28 Sep 09:24:42 09:28:10 28° 50° (NE) 09:31:37 437.485
CINEMA 3 28 Sep 09:36:45 09:40:20 28° 290° (WNW) 09:43:59 145.822/145.860
UNISAT 6 28 Sep 09:40:48 09:44:11 23° 68° (ENE) 09:47:34 437.425
GONETS M04 28 Sep 09:42:06 09:50:53 68° 280° (W) 09:59:45
CUTE 1.7 + AOD 2 28 Sep 09:48:01 09:51:47 30° 290° (WNW) 09:55:31 437.475
Oscar 11 28 Sep 09:48:37 09:52:42 39° 98° (E) 09:56:47 145.826/435.025
SEEDS 28 Sep 09:48:38 09:52:39 41° 288° (WNW) 09:56:39 437.485
CANX-2 28 Sep 09:49:30 09:53:03 25° 291° (WNW) 09:56:35 2200.000
ZACube-1 28 Sep 09:51:04 09:55:13 43° 99° (E) 09:59:27 437.345
DELFI C3 28 Sep 09:53:17 09:55:51 16° 93° (E) 09:58:23 145.870
HUMSAT D 28 Sep 10:10:08 10:12:12 13° 91° (E) 10:14:15 437.325/437.525
AAUSAT CUBESAT 2 28 Sep 10:10:15 10:14:14 43° 288° (WNW) 10:18:11 437.432
PHONESAT 2.4 28 Sep 10:11:26 10:13:02 14° 150° (SSE) 10:14:38 2401.200-2431.200
ANTELSAT 28 Sep 10:15:15 10:19:25 55° 73° (ENE) 10:23:35 437.575/2403.000
BEESAT 2 28 Sep 10:20:40 10:24:36 52° 55° (NE) 10:28:31 435.950
HO-68 28 Sep 10:26:28 10:32:38 33° 298° (WNW) 10:38:48 435.675
TIGRISAT 28 Sep 10:35:35 10:39:51 89° 64° (ENE) 10:44:07 435.000
CUBEBUG 2 28 Sep 10:42:09 10:45:26 22° 292° (WNW) 10:48:47 437.445
FUNcube-1 28 Sep 10:44:57 10:49:09 49° 286° (WNW) 10:53:24 145.935
DUCHIFAT 1 28 Sep 10:48:35 10:50:57 15° 65° (ENE) 10:53:19 145.980
QB50P1 28 Sep 10:50:36 10:53:28 18° 66° (ENE) 10:56:19 145.935-145.965
COMPASS 1 28 Sep 10:56:54 10:58:30 12° 297° (WNW) 11:00:07 437.405
UWE-3 28 Sep 10:59:28 11:02:46 22° 292° (WNW) 11:06:07 435.000/436.395/437.385
JAS-2 28 Sep 11:00:23 11:05:52 28° 61° (ENE) 11:11:52 435.910
BEESAT 3 28 Sep 11:02:24 11:05:45 26° 246° (WSW) 11:09:04 437.485
POPSAT HIP 1 28 Sep 11:03:33 11:06:56 24° 68° (ENE) 11:10:19 437.405
Cosmos 2499 28 Sep 11:14:03 11:18:33 17° 295° (WNW) 11:23:04 435.465 / 435.565
UNISAT 6 28 Sep 11:17:03 11:20:46 29° 264° (W) 11:24:30 437.425
NANOSAT C BR1 28 Sep 11:19:07 11:22:53 34° 71° (ENE) 11:26:40 145.865
Oscar 11 28 Sep 11:25:29 11:28:33 19° 294° (WNW) 11:31:37 145.826/435.025
DELFI C3 28 Sep 11:27:05 11:30:48 36° 288° (WNW) 11:34:29 145.870
ZACube-1 28 Sep 11:28:20 11:31:10 17° 294° (WNW) 11:34:03 437.345
QB50P2 28 Sep 11:42:29 11:46:41 73° 75° (ENE) 11:50:53 145.880/145.840
HUMSAT D 28 Sep 11:43:56 11:48:05 52° 286° (WNW) 11:52:14 437.325/437.525
POLYITAN 1 28 Sep 11:44:42 11:48:53 73° 77° (ENE) 11:53:05 437.675
GONETS M04 28 Sep 11:45:38 11:49:35 13° 303° (WNW) 11:53:34
PHONESAT 2.4 28 Sep 11:45:52 11:48:44 52° 165° (SSE) 11:51:37 2401.200-2431.200
AISAT 28 Sep 11:47:13 11:48:45 12° 90° (E) 11:50:17 437.250
ANTELSAT 28 Sep 11:54:49 11:56:29 12° 269° (W) 11:58:09 437.575/2403.000
BEESAT 2 28 Sep 11:59:57 12:01:58 14° 251° (WSW) 12:03:59 435.950
DX 1 28 Sep 12:20:04 12:22:45 16° 93° (E) 12:25:24 434.975-435.025
DUCHIFAT 1 28 Sep 12:22:13 12:26:15 47° 260° (W) 12:30:17 145.980
BUGSAT 1 28 Sep 12:22:32 12:26:37 68° 74° (ENE) 12:30:40 437.445
QB50P1 28 Sep 12:25:02 12:28:57 38° 262° (W) 12:32:53 145.935-145.965
VELOX 1 28 Sep 12:28:46 12:32:44 32° 97° (E) 12:36:39 145.980
ESTCUBE 1 28 Sep 12:31:07 12:35:40 75° 103° (ESE) 12:40:10 437.505/2401.250
CUBEBUG 1 28 Sep 12:31:36 12:35:46 46° 99° (E) 12:39:55 437.445
POPSAT HIP 1 28 Sep 12:39:00 12:42:35 27° 264° (W) 12:46:12 437.405
JAS-2 28 Sep 12:44:04 12:50:22 56° 261° (W) 12:57:31 435.910
AIST 2 28 Sep 12:46:45 12:50:57 65° 56° (ENE) 12:55:06 435.215
50 SAT 28 Sep 12:47:47 12:51:24 52° 100° (E) 12:54:57 437.505
PCSat 28 Sep 12:50:25 12:54:51 25° 48° (NE) 12:59:16 145.827
Oscar 19 28 Sep 12:50:53 12:55:23 30° 67° (ENE) 12:59:52 437.125/150
NANOSAT C BR1 28 Sep 12:55:40 12:58:41 19° 266° (W) 13:01:43 145.865
M-CUBED/EXP-1 PRIME 28 Sep 12:58:11 13:01:03 28° 103° (ESE) 13:03:56 437.505
SPROUT 28 Sep 13:10:04 13:14:14 52° 100° (E) 13:18:23 437.525
AO-7 28 Sep 13:17:19 13:19:41 11° 43° (NE) 13:22:03 29.400- 29.500
AISAT 28 Sep 13:21:16 13:25:37 61° 287° (WNW) 13:29:55 437.250
PHONESAT 2.4 28 Sep 13:21:51 13:24:47 89° 193° (SSW) 13:27:45 2401.200-2431.200
UKube-1 28 Sep 13:25:10 13:29:28 66° 102° (ESE) 13:33:44 .
Cosmos 2491 28 Sep 13:33:39 13:38:26 16° 76° (ENE) 13:43:11 435.465 / 435.565
YUBILEINY 28 Sep 13:34:22 13:42:11 35° 71° (ENE) 13:49:54 435.215
ITAMSAT 1 28 Sep 13:47:23 13:50:00 14° 60° (ENE) 13:52:38 435.822/435.867
Gurwin Techsat 1B 28 Sep 13:52:09 13:57:18 54° 72° (ENE) 14:02:28 435.225
AUBIESAT-1 28 Sep 13:54:27 13:57:41 55° 291° (WNW) 14:00:56 437.475
DX 1 28 Sep 13:55:01 13:59:08 44° 288° (WNW) 14:03:14 434.975-435.025
VELOX 1 28 Sep 14:05:33 14:09:01 23° 293° (WNW) 14:12:26 145.980
Cosmos 2504 28 Sep 14:07:36 14:12:50 20° 67° (ENE) 14:18:17 435.465 / 435.565
CUBEBUG 1 28 Sep 14:09:00 14:11:40 16° 296° (WNW) 14:14:19 437.445
SO-50 28 Sep 14:09:36 14:11:28 12° 107° (ESE) 14:13:20 436.795
ESTCUBE 1 28 Sep 14:10:16 14:11:50 12° 299° (WNW) 14:13:24 437.505/2401.250
50 SAT 28 Sep 14:23:40 14:24:24 10° 296° (WNW) 14:25:08 437.505
AIST 2 28 Sep 14:27:25 14:28:51 12° 252° (WSW) 14:30:19 435.215
TISAT 1 28 Sep 14:28:23 14:32:34 77° 102° (ESE) 14:36:44 437.305
Oscar 19 28 Sep 14:29:57 14:34:36 33° 263° (W) 14:39:16 437.125/150
PCSat 28 Sep 14:33:17 14:38:33 52° 246° (WSW) 14:43:46 145.827
M-CUBED/EXP-1 PRIME 28 Sep 14:33:33 14:35:23 14° 298° (WNW) 14:37:14 437.505
SPROUT 28 Sep 14:47:29 14:49:43 14° 296° (WNW) 14:51:57 437.525
PHONESAT 2.4 28 Sep 14:57:59 15:00:49 45° 198° (SSW) 15:03:40 2401.200-2431.200
AO-7 28 Sep 15:02:35 15:10:31 51° 64° (ENE) 15:18:26 29.400- 29.500
UKube-1 28 Sep 15:03:17 15:04:57 12° 298° (WNW) 15:06:35 .
ITUPSAT 1 28 Sep 15:03:24 15:07:44 32° 97° (E) 15:12:02 437.325
SWISSCUBE 28 Sep 15:15:55 15:20:36 50° 100° (E) 15:25:15 437.505
ITAMSAT 1 28 Sep 15:23:39 15:28:48 77° 257° (WSW) 15:34:01 435.822/435.867
Cosmos 2491 28 Sep 15:25:02 15:33:49 85° 95° (E) 15:42:42 435.465 / 435.565
BEESAT 28 Sep 15:28:46 15:33:32 61° 101° (ESE) 15:38:15 436.000
AIST 1 28 Sep 15:29:58 15:31:24 11° 68° (ENE) 15:32:49
YUBILEINY 28 Sep 15:30:55 15:39:12 51° 271° (W) 15:47:27 435.215
Gurwin Techsat 1B 28 Sep 15:33:53 15:37:33 19° 268° (W) 15:41:14 435.225
SO-50 28 Sep 15:46:28 15:51:19 79° 303° (WNW) 15:56:07 436.795
O/OREOS (USA 219) 28 Sep 15:50:08 15:50:38 10° 49° (NE) 15:51:07 437.305
Cosmos 2504 28 Sep 15:59:28 16:06:55 77° 265° (W) 16:14:53 435.465 / 435.565
BRITE-PL 28 Sep 16:14:34 16:16:59 13° 60° (ENE) 16:19:23 437.365/2234.400
PHONESAT 2.4 28 Sep 16:35:29 16:36:29 11° 212° (SSW) 16:37:27 2401.200-2431.200
ITUPSAT 1 28 Sep 16:41:24 16:45:25 27° 293° (WNW) 16:49:25 437.325
MOZHAYETS 4 28 Sep 16:49:20 16:54:01 76° 101° (ESE) 16:58:39
SWISSCUBE 28 Sep 16:54:43 16:57:59 18° 296° (WNW) 17:01:14 437.505
AO-7 28 Sep 16:55:58 17:03:26 36° 262° (W) 17:10:57 29.400- 29.500
AIST 1 28 Sep 17:05:11 17:09:25 59° 265° (W) 17:13:35
BEESAT 28 Sep 17:08:02 17:10:48 15° 298° (WNW) 17:13:33 436.000
KKS-1 28 Sep 17:09:51 17:14:17 77° 102° (ESE) 17:18:43 437.445
NOAA 15 28 Sep 17:10:59 17:14:45 20° 62° (ENE) 17:18:32 137.62
Cosmos 2491 28 Sep 17:25:36 17:31:48 21° 297° (WNW) 17:38:05 435.465 / 435.565
O/OREOS (USA 219) 28 Sep 17:26:10 17:30:48 83° 67° (ENE) 17:35:23 437.305
HORYU 2 28 Sep 17:27:34 17:31:58 86° 256° (WSW) 17:36:25 437.375
CUTE-I 28 Sep 17:29:09 17:33:17 24° 64° (ENE) 17:37:25 437.470
Cubesat XI-IV 28 Sep 17:29:15 17:33:22 23° 64° (ENE) 17:37:29 437.490
SO-50 28 Sep 17:30:05 17:32:33 14° 322° (NW) 17:35:00 436.795
GOMX 1 28 Sep 17:35:58 17:40:34 30° 69° (ENE) 17:45:00 467.674
STARS 28 Sep 17:41:35 17:45:58 82° 104° (ESE) 17:50:20 437.465
BRITE-PL 28 Sep 17:48:55 17:54:38 85° 75° (ENE) 18:00:15 437.365/2234.400
DOVE 4 28 Sep 17:55:02 17:58:29 19° 66° (ENE) 18:01:49 437.250
LilacSat-2 28 Sep 17:55:54 17:59:12 30° 71° (ENE) 18:02:32 437.200
Cosmos 2504 28 Sep 17:56:35 17:59:04 12° 283° (WNW) 18:01:36 435.465 / 435.565
GONETS M04 28 Sep 17:59:59 18:02:36 11° 55° (NE) 18:05:12
CUBESAT XI-V 28 Sep 18:11:00 18:15:43 72° 101° (E) 18:20:21 437.345
NOAA 18 28 Sep 18:15:03 18:20:18 50° 70° (ENE) 18:25:34 137.9125
MOZHAYETS 4 28 Sep 18:28:49 18:30:32 12° 299° (WNW) 18:32:14
CUSAT 1 28 Sep 18:31:06 18:36:25 29° 84° (E) 18:42:35 437.405
NOAA 15 28 Sep 18:48:54 18:54:05 55° 260° (W) 18:59:19 137.62
KKS-1 28 Sep 18:49:09 18:50:13 11° 299° (WNW) 18:51:16 437.445
CINEMA 3 28 Sep 19:01:29 19:04:51 22° 68° (ENE) 19:08:08 145.822/145.860
CUTE 1.7 + AOD 2 28 Sep 19:05:36 19:08:16 17° 65° (ENE) 19:10:58 437.475
CANX-2 28 Sep 19:06:35 19:09:38 20° 67° (ENE) 19:12:41 2200.000
HO-68 28 Sep 19:06:46 19:13:08 36° 63° (ENE) 19:19:32 435.675
SEEDS 28 Sep 19:06:52 19:08:24 12° 63° (ENE) 19:09:57 437.485
CUTE-I 28 Sep 19:07:57 19:13:01 45° 261° (W) 19:18:07 437.470
Cubesat XI-IV 28 Sep 19:08:03 19:13:07 46° 261° (W) 19:18:14 437.490
Cosmos 2499 28 Sep 19:08:06 19:14:20 27° 70° (ENE) 19:20:52 435.465 / 435.565
ISS 28 Sep 19:08:38 19:09:05 10° 128° (SE) 19:09:34 145.825
GOMX 1 28 Sep 19:13:37 19:18:31 35° 263° (W) 19:23:14 467.674
AAUSAT CUBESAT 2 28 Sep 19:27:56 19:28:44 10° 62° (ENE) 19:29:32 437.432
DOVE 4 28 Sep 19:31:00 19:35:52 48° 261° (W) 19:40:29 437.250
LilacSat-2 28 Sep 19:31:03 19:33:33 17° 267° (W) 19:36:05 437.200
BRITE-PL 28 Sep 19:31:06 19:33:39 13° 272° (W) 19:36:10 437.365/2234.400
STRAND 1 28 Sep 19:32:39 19:36:46 24° 94° (E) 19:40:51 437.568
RS-15 28 Sep 19:34:27 19:45:16 49° 109° (ESE) 19:56:38 29.354- 29.394
AO-85 28 Sep 19:50:15 19:52:19 12° 107° (ESE) 19:54:19 145.980
CUBESAT XI-V 28 Sep 19:50:28 19:52:27 13° 298° (WNW) 19:54:26 437.345
GONETS M04 28 Sep 19:52:49 20:01:33 61° 78° (ENE) 20:10:10
NOAA 18 28 Sep 19:57:09 20:01:13 21° 266° (W) 20:05:17 137.9125
CUBEBUG 2 28 Sep 20:03:23 20:06:50 25° 69° (ENE) 20:10:15 437.445
FUNcube-1 28 Sep 20:07:29 20:08:21 11° 62° (ENE) 20:09:14 145.935
DANDE 28 Sep 20:08:48 20:13:51 64° 94° (E) 20:20:37 436.750
COMPASS 1 28 Sep 20:09:32 20:13:25 38° 72° (ENE) 20:17:20 437.405
CUSAT 1 28 Sep 20:11:43 20:17:52 52° 286° (WNW) 20:25:21 437.405
UWE-3 28 Sep 20:19:45 20:23:09 25° 69° (ENE) 20:26:34 435.000/436.395/437.385
CINEMA 3 28 Sep 20:37:46 20:41:49 33° 263° (W) 20:45:45 145.822/145.860
SEEDS 28 Sep 20:39:23 20:43:33 63° 259° (W) 20:47:46 437.485
CUTE 1.7 + AOD 2 28 Sep 20:39:44 20:43:45 43° 262° (W) 20:47:49 437.475
CANX-2 28 Sep 20:41:20 20:45:13 35° 263° (W) 20:49:10 2200.000
ISS 28 Sep 20:41:51 20:45:06 83° 325° (NW) 20:48:22 145.825
Oscar 11 28 Sep 20:43:09 20:46:52 29° 69° (ENE) 20:50:37 145.826/435.025
ZACube-1 28 Sep 20:46:52 20:50:31 31° 71° (ENE) 20:54:11 437.345
PRISM 28 Sep 20:51:41 20:53:04 11° 91° (E) 20:54:26 437.425
HO-68 28 Sep 20:53:55 21:00:42 44° 261° (W) 21:07:30 435.675
AAUSAT CUBESAT 2 28 Sep 20:59:27 21:03:36 71° 259° (WSW) 21:07:47 437.432
Cosmos 2499 28 Sep 21:00:23 21:07:50 61° 268° (W) 21:15:51 435.465 / 435.565
STRAND 1 28 Sep 21:11:15 21:16:03 41° 290° (WNW) 21:20:51 437.568
AO-85 28 Sep 21:26:58 21:32:13 85° 304° (NW) 21:37:07 145.980
CUBEBUG 2 28 Sep 21:39:55 21:43:24 25° 265° (W) 21:46:52 437.445
FUNcube-1 28 Sep 21:39:55 21:44:01 67° 258° (WSW) 21:48:09 145.935
RS-15 28 Sep 21:46:16 21:57:39 54° 313° (NW) 22:09:38 29.354- 29.394
COMPASS 1 28 Sep 21:46:24 21:49:07 17° 268° (W) 21:51:52 437.405
GONETS M04 28 Sep 21:50:37 21:57:43 29° 278° (W) 22:04:47
DANDE 28 Sep 21:53:31 21:57:34 20° 300° (WNW) 22:02:23 436.750
UWE-3 28 Sep 21:56:06 21:59:33 25° 265° (W) 22:03:00 435.000/436.395/437.385
ANTELSAT 28 Sep 22:08:49 22:10:34 12° 91° (E) 22:12:19 437.575/2403.000
DELFI C3 28 Sep 22:11:48 22:15:46 69° 258° (WSW) 22:19:48 145.870
Oscar 11 28 Sep 22:19:29 22:22:58 24° 265° (W) 22:26:29 145.826/435.025
ISS 28 Sep 22:19:39 22:22:00 18° 342° (NNW) 22:24:22 145.825
ZACube-1 28 Sep 22:23:48 22:26:51 20° 266° (W) 22:29:56 437.345
PRISM 28 Sep 22:24:39 22:28:43 55° 286° (WNW) 22:32:43 437.425
TIGRISAT 28 Sep 22:27:52 22:31:01 19° 94° (E) 22:34:11 435.000
HUMSAT D 28 Sep 22:34:27 22:38:31 80° 259° (W) 22:42:39 437.325/437.525
SO-50 28 Sep 22:39:29 22:41:45 13° 37° (NE) 22:43:59 436.795
AISAT 28 Sep 22:44:57 22:46:24 11° 61° (ENE) 22:47:52 437.250
AUBIESAT-1 28 Sep 23:07:28 23:09:25 13° 61° (ENE) 23:11:19 437.475
UNISAT 6 28 Sep 23:07:53 23:12:14 55° 100° (E) 23:16:39 437.425
AO-85 28 Sep 23:10:25 23:13:17 15° 319° (NW) 23:16:04 145.980
DX 1 28 Sep 23:15:51 23:18:16 15° 63° (ENE) 23:20:41 434.975-435.025
50 SAT 28 Sep 23:24:31 23:27:21 22° 69° (ENE) 23:30:12 437.505
VELOX 1 28 Sep 23:25:44 23:29:33 29° 69° (ENE) 23:33:23 145.980
CUBEBUG 1 28 Sep 23:27:01 23:31:05 37° 71° (ENE) 23:35:10 437.445
QB50P2 28 Sep 23:29:40 23:31:18 12° 91° (E) 23:32:56 145.880/145.840
ESTCUBE 1 28 Sep 23:29:58 23:34:27 65° 74° (ENE) 23:38:57 437.505/2401.250
POLYITAN 1 28 Sep 23:31:52 23:33:29 12° 91° (E) 23:35:08 437.675
ANTELSAT 28 Sep 23:43:15 23:47:37 62° 286° (WNW) 23:52:05 437.575/2403.000
M-CUBED/EXP-1 PRIME 28 Sep 23:43:37 23:47:30 42° 68° (ENE) 23:51:08 437.505
JAS-2 28 Sep 23:54:12 00:00:43 28° 91° (E) 00:06:55 435.910
ISS 28 Sep 23:58:01 23:59:30 12° 3° (N) 00:00:58 145.825
SPROUT 29 Sep 00:03:09 00:07:05 38° 72° (ENE) 00:11:02 437.525
TIGRISAT 29 Sep 00:03:43 00:07:49 39° 288° (WNW) 00:12:00 435.000
RS-15 29 Sep 00:04:37 00:13:54 24° 344° (NNW) 00:23:25 29.354- 29.394
DUCHIFAT 1 29 Sep 00:06:45 00:10:16 26° 96° (E) 00:13:47 145.980
QB50P1 29 Sep 00:09:49 00:13:37 32° 97° (E) 00:17:24 145.935-145.965
AISAT 29 Sep 00:17:49 00:22:15 74° 257° (WSW) 00:26:43 437.250
SO-50 29 Sep 00:18:23 00:22:59 84° 59° (ENE) 00:27:26 436.795
UKube-1 29 Sep 00:19:04 00:23:16 52° 73° (ENE) 00:27:29 .
POPSAT HIP 1 29 Sep 00:23:15 00:27:18 45° 100° (E) 00:31:20 437.405
